DateTimeUTC,F1_A11,F1_S11,BsB_S11,BsG_S11,BsR_S11,BbsB_S11,BbsG_S11,BbsR_S11,BaB_A11,BaG_A11,BaR_A11,Tu_S11,T_S11,Uu_S11,U_S11,P_S11,T1_A11
2021-02-14T07:00:00Z,00000200,20000000,,,,,,,0000.09,-000.36,-000.27,17.4,23.8,01.6,01.1,0654.5,31.1
2021-02-14T07:01:00Z,00000200,20000000,,,,,,,-000.07,0000.06,0000.35,17.4,23.8,01.6,01.1,0654.5,31.0
2021-02-14T07:02:00Z,00000200,20000000,,,,,,,-000.24,0000.02,-000.13,17.4,23.8,01.6,01.1,0654.5,31.1
2021-02-14T07:03:00Z,00000200,60000000,,,,,,,0000.19,-000.06,0000.01,17.4,23.9,01.6,01.1,0654.5,31.1
2021-02-14T07:04:00Z,00000200,40000000,0000.94,0000.29,0000.03,-000.49,0000.02,0000.22,0000.16,0000.30,-000.14,17.5,23.7,01.9,01.3,0655.4,31.1
2021-02-14T07:05:00Z,00000200,00000000,0000.06,0000.37,0000.18,-000.00,-000.08,0000.30,-000.09,-000.26,0000.41,17.6,23.7,01.9,01.3,0655.4,31.1
2021-02-14T07:06:00Z,00000200,01000000,-000.37,-000.05,0000.41,-000.45,-000.01,0000.07,0000.12,-000.07,-000.42,17.6,23.6,01.9,01.3,0655.4,31.1
2021-02-14T07:07:00Z,00000200,00000000,0000.16,0000.20,0000.15,0000.35,0000.48,0000.03,0000.02,0000.27,0000.28,17.6,23.6,01.9,01.3,0655.4,31.1
2021-02-14T07:08:00Z,00000200,01000000,-000.04,-000.02,0000.05,-000.14,0000.16,-000.03,0000.08,0000.07,-000.07,17.6,23.7,01.8,01.3,0655.4,31.1
2021-02-14T07:09:00Z,00000200,00000000,0000.61,0000.29,-000.04,-000.17,0000.23,-000.12,-000.00,0000.14,0000.01,17.6,23.7,01.9,01.3,0655.4,31.1
2021-02-14T07:10:00Z,00000200,01000000,0000.47,0000.20,0000.27,-000.31,0000.10,-000.10,0000.22,-000.22,0000.07,17.6,23.7,01.8,01.2,0655.4,31.1
2021-02-14T07:11:00Z,00000200,00000000,0000.14,0000.13,0000.48,-000.62,0000.07,-000.12,-000.15,-000.12,0000.25,17.6,23.7,01.8,01.2,0655.4,31.1
2021-02-14T07:12:00Z,00000200,00000000,-000.12,0000.10,0000.25,-000.40,0000.11,0000.09,-000.06,0000.24,-000.25,17.7,23.6,01.8,01.3,0655.4,31.1
2021-02-14T07:13:00Z,00000200,00000000,-000.40,-000.17,-000.09,-000.05,0000.12,-000.16,0000.10,0000.23,0000.21,17.7,23.7,01.9,01.3,0655.4,31.1
2021-02-14T07:14:00Z,00000200,01000000,0001.03,-000.16,0000.19,0000.04,0000.11,-000.31,0000.06,-000.01,0000.08,17.7,23.7,01.9,01.3,0655.3,31.1
2021-02-14T07:15:00Z,00000200,01000000,0000.08,0000.12,0000.12,-000.39,0000.17,-000.04,0000.31,-000.06,0000.10,17.7,23.7,01.8,01.3,0655.3,31.1
2021-02-14T07:16:00Z,00000200,01000000,-000.28,0000.01,0000.38,0000.04,-000.07,0000.39,-000.29,0000.05,-000.01,17.7,23.7,01.8,01.3,0655.3,31.1
2021-02-14T07:17:00Z,00000200,00000000,0000.45,-000.05,0000.12,-000.25,0000.10,-000.20,0000.10,-000.19,-000.14,17.7,23.7,01.9,01.3,0655.3,31.1
2021-02-14T07:18:00Z,00000200,01000000,-000.18,0000.38,0000.00,-000.16,0000.07,0000.05,-000.03,0000.12,0000.10,17.7,23.7,01.8,01.3,0655.3,31.1
2021-02-14T07:19:00Z,00000200,01000000,-000.27,0000.04,0000.10,0000.54,-000.04,-000.21,0000.23,0000.07,-000.20,17.7,23.7,01.8,01.2,0655.2,31.1
2021-02-14T07:20:00Z,00000200,01000000,0000.27,-000.10,0000.12,-000.71,0000.07,-000.23,-000.22,0000.18,0000.40,17.7,23.7,01.8,01.2,0655.2,31.1
2021-02-14T07:21:00Z,00000200,01000000,-000.28,-000.05,0000.16,-000.26,0000.11,-000.12,0000.34,0000.31,0000.08,17.7,23.7,01.8,01.3,0655.2,31.1
2021-02-14T07:22:00Z,00000200,01000000,-000.24,0000.22,0000.34,0000.04,0000.21,0000.21,-000.02,0000.01,0000.01,17.7,23.7,01.8,01.3,0655.1,31.1
2021-02-14T07:23:00Z,00000200,00000000,-000.38,-000.18,0000.16,-000.07,0000.06,0000.05,0000.23,0000.24,-000.06,17.7,23.7,02.0,01.4,0655.1,31.1
2021-02-14T07:24:00Z,00000200,00000000,-000.05,-000.07,0000.13,-000.14,0000.25,-000.22,0000.21,0000.02,0000.12,17.7,23.7,01.9,01.3,0655.1,31.1
2021-02-14T07:25:00Z,00000200,00000000,0000.39,0000.25,0000.09,-000.62,-000.02,0000.01,0000.01,0000.12,0000.14,17.7,23.7,02.0,01.4,0655.1,31.1
2021-02-14T07:26:00Z,00000200,00000000,0000.09,-000.07,0000.02,0000.03,-000.12,0000.12,0000.20,-000.22,0000.26,17.8,23.7,02.0,01.4,0655.1,31.1
2021-02-14T07:27:00Z,00000200,00000000,-000.03,0000.05,-000.05,0000.28,-000.00,-000.10,-000.16,0000.17,-000.07,17.8,23.7,02.0,01.4,0655.1,31.1
2021-02-14T07:28:00Z,00000200,01000000,0000.21,0000.31,-000.01,0000.41,-000.11,-000.02,0000.28,0000.27,0000.10,17.7,23.7,02.0,01.4,0655.1,31.1
2021-02-14T07:29:00Z,00000200,00000000,-000.17,0000.48,0000.41,-000.32,0000.25,0000.23,-000.16,-000.45,0000.07,17.8,23.7,02.0,01.4,0655.0,31.1
2021-02-14T07:30:00Z,00000200,00000000,0000.21,-000.19,0000.28,-000.08,-000.06,-000.08,0000.11,0000.31,-000.19,17.8,23.7,01.9,01.3,0655.0,31.1
2021-02-14T07:31:00Z,00000200,00000000,0000.48,0000.15,0000.51,0000.19,0000.21,0000.34,0000.06,0000.17,0000.18,17.8,23.7,02.0,01.4,0654.9,31.1
2021-02-14T07:32:00Z,00000200,00000000,-000.99,0000.30,0000.63,-000.20,0000.12,-000.10,0000.18,0000.08,-000.06,17.8,23.7,02.1,01.4,0654.9,31.1
2021-02-14T07:33:00Z,00000200,00000000,0000.41,0000.42,0000.36,-000.06,0000.08,-000.10,0000.46,0000.12,0000.05,17.8,23.7,01.9,01.3,0654.9,31.1
2021-02-14T07:34:00Z,00000200,01000000,0000.30,0000.19,0000.21,0000.06,0000.13,0000.05,-000.31,0000.03,0000.28,17.8,23.7,01.9,01.3,0655.0,31.1
2021-02-14T07:35:00Z,00000200,00000000,0000.22,0000.04,0000.04,0000.48,0000.03,0000.05,0000.10,-000.20,-000.33,17.8,23.8,01.8,01.3,0654.9,31.1
2021-02-14T07:36:00Z,00000200,00000000,0000.16,0000.01,0000.59,-000.37,0000.13,-000.10,-000.27,-000.07,-000.04,17.8,23.7,01.8,01.2,0655.0,31.1
2021-02-14T07:37:00Z,00000200,01000000,0000.26,0000.02,0000.57,-000.43,0000.16,0000.05,0000.05,0000.14,0000.19,17.8,23.7,01.9,01.3,0654.9,31.1
2021-02-14T07:38:00Z,00000200,01000000,0000.88,0000.56,-000.03,0000.01,0000.00,-000.11,0000.25,0000.09,0000.08,17.8,23.7,01.8,01.2,0654.9,31.1
2021-02-14T07:39:00Z,00000200,01000000,0000.13,0000.15,0000.09,-000.43,0000.14,0000.27,-000.22,-000.12,0000.19,17.8,23.7,01.7,01.2,0654.9,31.1
2021-02-14T07:40:00Z,00000200,01000000,0000.24,-000.19,-000.21,-000.19,-000.02,-000.52,0000.06,-000.22,-000.24,17.8,23.8,01.8,01.2,0654.9,31.1
2021-02-14T07:41:00Z,00000200,01000000,0000.78,0000.13,0000.08,-000.17,0000.10,-000.18,-000.12,0000.02,0000.19,17.8,23.7,01.7,01.2,0654.9,31.1
2021-02-14T07:42:00Z,00000200,01000000,-000.58,0000.31,0000.34,-000.26,0000.11,-000.04,0000.02,-000.02,-000.12,17.8,23.8,01.8,01.2,0654.9,31.1
2021-02-14T07:43:00Z,00000200,01000000,0000.12,0000.23,0000.19,-000.26,-000.07,-000.13,0000.00,0000.26,0000.12,17.8,23.8,01.8,01.3,0654.9,31.1
2021-02-14T07:44:00Z,00000200,00000000,0000.31,-000.12,-000.18,0000.08,-000.01,-000.13,0000.12,0000.09,0000.19,17.8,23.8,01.8,01.2,0654.8,31.1
2021-02-14T07:45:00Z,00000200,01000000,0000.45,-000.21,-000.12,0000.18,0000.18,0000.03,-000.09,0000.02,-000.10,17.8,23.8,01.8,01.2,0654.8,31.1
2021-02-14T07:46:00Z,00000200,01000000,-000.25,-000.33,0000.19,0000.04,0000.09,-000.06,0000.14,0000.35,-000.05,17.8,23.8,01.8,01.2,0654.8,31.1
2021-02-14T07:47:00Z,00000200,01000000,-000.25,-000.05,0000.39,0000.48,0000.04,-000.02,0000.19,-000.21,-000.24,17.8,23.8,01.7,01.2,0654.8,31.1
2021-02-14T07:48:00Z,00000200,01000000,0000.56,0000.24,-000.02,0000.02,0000.18,-000.13,-000.07,-000.12,-000.01,17.8,23.8,01.7,01.2,0654.8,31.1
2021-02-14T07:49:00Z,00000200,01000000,0000.10,-000.03,-000.11,-000.43,0000.12,-000.05,-000.05,-000.00,0000.15,17.8,23.8,01.7,01.2,0654.7,31.1
2021-02-14T07:50:00Z,00000200,01000000,0000.40,0000.42,0000.37,-000.04,0000.10,0000.01,0000.12,0000.07,0000.05,17.8,23.8,01.7,01.2,0654.6,31.1
2021-02-14T07:51:00Z,00000200,01000000,0000.35,0000.17,0000.25,-000.17,0000.08,-000.09,0000.31,0000.55,0000.36,17.8,23.8,01.8,01.3,0654.6,31.1
2021-02-14T07:52:00Z,00000200,01000000,0000.31,-000.43,0000.12,0000.39,0000.09,0000.28,-000.22,-000.29,-000.34,17.8,23.8,01.8,01.2,0654.5,31.1
2021-02-14T07:53:00Z,00000200,01000000,-000.34,0000.31,0000.16,-000.18,0000.25,0000.31,0000.29,0000.47,0000.34,17.8,23.8,01.8,01.3,0654.6,31.1
2021-02-14T07:54:00Z,00000200,01000000,0000.64,-000.13,0000.27,-000.17,0000.21,-000.03,0000.18,-000.12,-000.01,17.8,23.8,01.8,01.2,0654.6,31.1
2021-02-14T07:55:00Z,00000200,01000000,0000.37,-000.09,0000.02,-000.54,0000.21,-000.23,0000.16,-000.14,0000.31,17.8,23.8,01.8,01.3,0654.7,31.1
2021-02-14T07:56:00Z,00000200,01000000,0000.26,-000.17,0000.09,-000.15,0000.13,0000.13,-000.07,0000.47,-000.06,17.9,23.8,01.7,01.2,0654.7,31.1
2021-02-14T07:57:00Z,00000200,40000000,,,,,,,0000.44,-000.13,-000.03,17.9,23.9,01.6,01.1,0654.7,31.1
2021-02-14T07:58:00Z,00000200,60000000,,,,,,,-000.17,0000.01,-000.02,17.6,23.9,01.7,01.1,0653.5,31.1
2021-02-14T07:59:00Z,00000200,20000000,,,,,,,-000.23,-000.05,0000.06,17.6,24.0,01.6,01.1,0653.4,31.1
